Location: Unspecified
(47.9110°N, 14.3980°E)
Time: 09:42:19
(UTC+00:00)

Meteor 1-4 Rocket - Pass Details

Date: 06 August 2020
Orbit: 449 x 502 km, 81.2° (Epoch: 20 September)

Event Time Altitude Azimuth Distance (km) Brightness Sun altitude
Rises 19:35:37 0° 358° (N) 2,500 6.8 -10.1°
Reaches altitude 10° 19:37:57 10° 12° (NNE) 1,611 5.6 -10.4°
Maximum altitude 19:40:57 26° 70° (ENE) 943 3.7 -10.8°
Enters shadow 19:42:49 17° 116° (ESE) 1,239 4.0 -11.1°
